YODAKA

Last updated on Wed Feb 05 2025 00:02:08 GMT+0000 (Coordinated Universal Time)

1 62295U 98067XB 25035.54137918 .00452625 00000+0 26336-2 0 9992 2 62295 51.6276 239.3632 0013906 233.9402 126.0310 15.76514442 8957
UTC large
Height (km)
Speed (km/s)
/
Latitude / Longitude
Inclination (degrees)
Orbital Period (minutes)
Azimuth
Elevation
Range (km)
Doppler Factor

Next 0 passes for location: London (51.5072 / 0.1276)

Sorry there are no passes over London.